• In Hungary
  • List of Countries
  • For 7 days
  • Water Temperature
  • Satellite Maps
  • Weather Map
  • News
  • Weather Widgets
  • user-avatar
    Login

    Hourly Weather Chudnivtsi

    Today, 18 December, Monday

    Time Temperature Precipitation Wind Pressure Humidity
    00:00 -1°C° 0.6 mm 6 mps 748 mmHg 86%
    01:00 -1°C° 0.6 mm 7 mps 748 mmHg 87%
    02:00 -1°C° 0 mm 6 mps 747 mmHg 90%
    03:00 -1°C° 1.4 mm 6 mps 746 mmHg 90%
    04:00 -1°C° 1.4 mm 7 mps 746 mmHg 91%
    05:00 -1°C° 1.4 mm 7 mps 746 mmHg 92%
    06:00 -1°C° 1.1 mm 7 mps 745 mmHg 93%
    07:00 -2°C° 1.1 mm 7 mps 745 mmHg 93%
    08:00 -1°C° 0 mm 7 mps 744 mmHg 94%
    09:00 -1°C° 1.4 mm 6 mps 743 mmHg 95%
    10:00 -1°C° 1.4 mm 6 mps 743 mmHg 96%
    11:00 -1°C° 1.4 mm 6 mps 742 mmHg 97%
    12:00 0°C° 1 mm 5 mps 742 mmHg 98%
    13:00 +1°C° 1 mm 5 mps 741 mmHg 98%
    14:00 +2°C° 0 mm 5 mps 740 mmHg 99%
    15:00 +2°C° 0.5 mm 5 mps 740 mmHg 98%
    16:00 +1°C° 0.5 mm 6 mps 740 mmHg 97%
    17:00 +1°C° 0.5 mm 6 mps 740 mmHg 96%
    18:00 +1°C° 0.1 mm 6 mps 740 mmHg 95%
    19:00 -1°C° 0.1 mm 7 mps 741 mmHg 94%
    20:00 -2°C° 0.1 mm 7 mps 741 mmHg 92%
    21:00 -2°C° 0.1 mm 7 mps 742 mmHg 91%
    22:00 -2°C° 0.1 mm 8 mps 742 mmHg 90%
    23:00 -2°C° 0.1 mm 8 mps 743 mmHg 88%

    Tomorrow, 19 December, Tuesday

    Time Temperature Precipitation Wind Pressure Humidity
    00:00 -2°C° 0.1 mm 8 mps 743 mmHg 88%
    01:00 -4°C° 0.1 mm 8 mps 743 mmHg 88%
    02:00 -4°C° 0.1 mm 8 mps 744 mmHg 87%
    03:00 -4°C° 0.1 mm 8 mps 744 mmHg 87%
    04:00 -4°C° 0.1 mm 8 mps 744 mmHg 87%
    05:00 -4°C° 0.1 mm 8 mps 745 mmHg 87%
    06:00 -3°C° 0.1 mm 7 mps 745 mmHg 87%
    07:00 -3°C° 0.1 mm 7 mps 745 mmHg 87%
    08:00 -4°C° 0.1 mm 7 mps 746 mmHg 87%
    09:00 -4°C° 0.2 mm 7 mps 746 mmHg 87%
    10:00 -3°C° 0.2 mm 7 mps 747 mmHg 87%
    11:00 -3°C° 0.2 mm 7 mps 748 mmHg 87%
    12:00 -3°C° 0.1 mm 7 mps 748 mmHg 86%
    13:00 -3°C° 0.1 mm 7 mps 748 mmHg 86%
    14:00 -3°C° 0.1 mm 7 mps 748 mmHg 86%
    15:00 -4°C° 0.1 mm 6 mps 749 mmHg 86%
    16:00 -4°C° 0.1 mm 6 mps 749 mmHg 87%
    17:00 -4°C° 0.1 mm 6 mps 750 mmHg 87%
    18:00 -4°C° 0.1 mm 6 mps 750 mmHg 87%
    19:00 -4°C° 0.1 mm 5 mps 750 mmHg 88%
    20:00 -5°C° 0.1 mm 5 mps 751 mmHg 88%
    21:00 -5°C° 0.1 mm 5 mps 751 mmHg 88%
    22:00 -5°C° 0.1 mm 5 mps 751 mmHg 88%
    23:00 -4°C° 0.1 mm 4 mps 752 mmHg 89%

    Day after tomorrow, 20 December, Wednesday

    Time Temperature Precipitation Wind Pressure Humidity
    00:00 -4°C° 0.1 mm 4 mps 752 mmHg 89%
    01:00 -4°C° 0.1 mm 4 mps 752 mmHg 89%
    02:00 -4°C° 0.1 mm 4 mps 753 mmHg 89%
    03:00 -4°C° 0.1 mm 3 mps 753 mmHg 90%
    04:00 -4°C° 0.1 mm 3 mps 753 mmHg 90%
    05:00 -4°C° 0.1 mm 3 mps 753 mmHg 90%
    06:00 -4°C° 0 mm 3 mps 754 mmHg 91%
    07:00 -4°C° 0 mm 3 mps 754 mmHg 91%
    08:00 -4°C° 0 mm 3 mps 755 mmHg 91%
    09:00 -4°C° 0 mm 3 mps 755 mmHg 90%
    10:00 -2°C° 0 mm 3 mps 756 mmHg 88%
    11:00 -2°C° 0 mm 3 mps 756 mmHg 87%
    12:00 -2°C° 0 mm 3 mps 756 mmHg 86%
    13:00 -2°C° 0 mm 3 mps 756 mmHg 85%
    14:00 -2°C° 0 mm 2 mps 756 mmHg 84%
    15:00 -2°C° 0 mm 2 mps 757 mmHg 86%
    16:00 -2°C° 0 mm 2 mps 757 mmHg 87%
    17:00 -2°C° 0 mm 2 mps 758 mmHg 89%
    18:00 -2°C° 0 mm 2 mps 758 mmHg 90%
    19:00 -2°C° 0 mm 2 mps 758 mmHg 90%
    20:00 -2°C° 0 mm 2 mps 759 mmHg 91%
    21:00 -2°C° 0 mm 2 mps 759 mmHg 91%
    22:00 -2°C° 0 mm 2 mps 759 mmHg 91%
    23:00 -2°C° 0 mm 2 mps 760 mmHg 91%

    21 December, Thursday

    Time Temperature Precipitation Wind Pressure Humidity
    00:00 -2°C° 0 mm 2 mps 760 mmHg 91%
    01:00 -2°C° 0 mm 2 mps 760 mmHg 92%
    02:00 0°C° 0 mm 1 mps 760 mmHg 92%
    03:00 -1°C° 0 mm 1 mps 760 mmHg 92%
    04:00 -1°C° 0 mm 1 mps 760 mmHg 93%
    05:00 -1°C° 0 mm 1 mps 760 mmHg 93%
    06:00 -1°C° 0 mm 1 mps 760 mmHg 94%
    07:00 -1°C° 0 mm 1 mps 760 mmHg 94%
    08:00 -2°C° 0 mm 1 mps 760 mmHg 94%
    09:00 -3°C° 0 mm 2 mps 760 mmHg 92%
    10:00 -3°C° 0 mm 2 mps 760 mmHg 91%
    11:00 -3°C° 0 mm 2 mps 760 mmHg 89%
    12:00 -3°C° 0 mm 2 mps 760 mmHg 89%
    13:00 -3°C° 0 mm 2 mps 759 mmHg 88%
    14:00 -3°C° 0 mm 2 mps 759 mmHg 87%
    15:00 -3°C° 0 mm 2 mps 759 mmHg 89%
    16:00 -4°C° 0 mm 2 mps 759 mmHg 91%
    17:00 -4°C° 0 mm 2 mps 758 mmHg 92%
    18:00 -4°C° 0 mm 2 mps 758 mmHg 92%
    19:00 -4°C° 0 mm 2 mps 758 mmHg 92%
    20:00 -4°C° 0 mm 2 mps 758 mmHg 93%
    21:00 -4°C° 0 mm 2 mps 758 mmHg 92%
    22:00 -4°C° 0 mm 2 mps 757 mmHg 91%
    23:00 -4°C° 0 mm 2 mps 757 mmHg 91%

    22 December, Friday

    Time Temperature Precipitation Wind Pressure Humidity
    00:00 -5°C° 0 mm 3 mps 756 mmHg 90%
    01:00 -6°C° 0 mm 3 mps 756 mmHg 90%
    02:00 -6°C° 0 mm 3 mps 755 mmHg 89%
    03:00 -6°C° 0 mm 3 mps 755 mmHg 89%
    04:00 -6°C° 0 mm 3 mps 754 mmHg 88%
    05:00 -7°C° 0 mm 3 mps 754 mmHg 88%
    06:00 -7°C° 0 mm 3 mps 753 mmHg 88%
    07:00 -7°C° 0 mm 3 mps 753 mmHg 88%
    08:00 -7°C° 0 mm 3 mps 753 mmHg 88%
    09:00 -7°C° 0 mm 4 mps 752 mmHg 86%
    10:00 -5°C° 0 mm 4 mps 752 mmHg 84%
    11:00 -6°C° 0 mm 5 mps 752 mmHg 82%
    12:00 -5°C° 0 mm 5 mps 751 mmHg 82%
    13:00 -5°C° 0 mm 5 mps 750 mmHg 82%
    14:00 -5°C° 0 mm 6 mps 750 mmHg 81%
    15:00 -5°C° 0 mm 5 mps 749 mmHg 82%
    16:00 -5°C° 0 mm 5 mps 748 mmHg 84%
    17:00 -5°C° 0 mm 5 mps 748 mmHg 85%
    18:00 -5°C° 0.1 mm 6 mps 748 mmHg 86%
    19:00 -5°C° 0.1 mm 6 mps 747 mmHg 87%
    20:00 -5°C° 0.1 mm 6 mps 747 mmHg 88%
    21:00 -4°C° 0.2 mm 6 mps 746 mmHg 89%
    22:00 -4°C° 0.2 mm 5 mps 746 mmHg 91%
    23:00 -2°C° 0.2 mm 5 mps 746 mmHg 92%

    23 December, Saturday

    Time Temperature Precipitation Wind Pressure Humidity
    00:00 -2°C° 0.1 mm 5 mps 746 mmHg 92%
    01:00 -2°C° 0.1 mm 5 mps 745 mmHg 92%
    02:00 -2°C° 0.1 mm 5 mps 745 mmHg 92%
    03:00 -4°C° 0.1 mm 5 mps 745 mmHg 92%
    04:00 -4°C° 0.1 mm 5 mps 745 mmHg 92%
    05:00 -3°C° 0.1 mm 4 mps 744 mmHg 92%
    06:00 -3°C° 0 mm 4 mps 744 mmHg 92%
    07:00 -3°C° 0 mm 4 mps 744 mmHg 92%
    08:00 -4°C° 0 mm 4 mps 745 mmHg 92%
    09:00 -3°C° 0 mm 4 mps 745 mmHg 91%
    10:00 -3°C° 0 mm 4 mps 745 mmHg 90%
    11:00 -3°C° 0 mm 4 mps 745 mmHg 89%
    12:00 -3°C° 0 mm 4 mps 745 mmHg 90%
    13:00 -3°C° 0 mm 4 mps 745 mmHg 90%
    14:00 -2°C° 0 mm 4 mps 745 mmHg 90%
    15:00 -3°C° 0 mm 4 mps 745 mmHg 90%
    16:00 -3°C° 0 mm 4 mps 745 mmHg 91%
    17:00 -3°C° 0 mm 4 mps 746 mmHg 91%
    18:00 -4°C° 0 mm 4 mps 746 mmHg 91%
    19:00 -4°C° 0 mm 4 mps 746 mmHg 91%
    20:00 -4°C° 0 mm 4 mps 747 mmHg 91%
    21:00 -5°C° 0 mm 4 mps 747 mmHg 91%
    22:00 -5°C° 0 mm 4 mps 747 mmHg 91%
    23:00 -7°C° 0 mm 4 mps 747 mmHg 90%
    Show more